Change the Weather History Date:

Thursday, October 20, 2011

  Actual Average Record
Temperature  
Mean Temperature 47 °F 61 °F  
Max Temperature 64 °F 72 °F 91 °F (1979)
Min Temperature 30 °F 49 °F 30 °F (1976)
Degree Days  
Heating Degree Days 18 6  
Month to date heating degree days 51 81  
Since 1 July heating degree days 74 105  
Cooling Degree Days 0 1  
Month to date cooling degree days 76 51  
Year to date cooling degree days 2713 2016  
Moisture  
Dew Point 27 °F    
Average Humidity 54    
Maximum Humidity 82    
Minimum Humidity 25    
Precipitation  
Precipitation 0.00 in 0.14 in 4.96 in (1971)
Month to date precipitation 0.49 2.53  
Year to date precipitation 23.79 34.27  
Sea Level Pressure  
Sea Level Pressure 30.09 in    
Wind  
Wind Speed 2 mph (NNE)    
Max Wind Speed 12 mph    
Max Gust Speed 15 mph    
Visibility 10 miles    
Events      
T = Trace of Precipitation, MM = Missing Value Source: NWS Daily Summary

Daily Weather History Graph

Daily Weather History Graph

Search for Another Location

Airport or City:

Trip Planner

Search our weather history database for the weather conditions in past years. The results will help you decide how hot, cold, wet, or windy it might be!

Date:

Astronomy

Oct. 20, 2011 Rise Set
Actual Time 7:34 AM CDT 6:41 PM CDT
Civil Twilight 7:08 AM CDT 7:07 PM CDT
Nautical Twilight 6:38 AM CDT 7:37 PM CDT
Astronomical Twilight 6:09 AM CDT 8:07 PM CDT
Moon 12:33 AM CDT (10/20) 2:39 PM CDT (10/20)
Length of Visible Light 11h 58m
Length of Day
11h 06m
Last Quarter, 44% of the Moon is Illuminated
Oct 20
Last Quarter
Oct 26
New
Nov 2
First Quarter
Nov 10
Full
Nov 18
Last Quarter

Hourly Weather History & Observations

Time (CDT) Temp. Windchill Dew Point Humidity Pressure Visibility Wind Dir Wind Speed Gust Speed Precip Events Conditions
12:53 AM 39.0 °F - 27.0 °F 62% 30.07 in 10.0 mi Calm Calm - N/A   Clear
1:53 AM 39.0 °F - 26.1 °F 60% 30.07 in 10.0 mi Calm Calm - N/A   Clear
2:53 AM 37.4 °F - 24.8 °F 60% 30.07 in 10.0 mi Calm Calm - N/A   Clear
3:53 AM 37.0 °F - 24.1 °F 59% 30.06 in 10.0 mi Calm Calm - N/A   Clear
4:53 AM 35.6 °F - 23.0 °F 60% 30.06 in 10.0 mi Calm Calm - N/A   Clear
5:53 AM 33.1 °F - 23.0 °F 66% 30.08 in 10.0 mi Calm Calm - N/A   Clear
6:53 AM 31.1 °F - 26.1 °F 82% 30.09 in 10.0 mi Calm Calm - N/A   Clear
7:53 AM 32.0 °F - 26.1 °F 79% 30.12 in 10.0 mi Calm Calm - N/A   Clear
8:53 AM 39.0 °F - 30.0 °F 70% 30.14 in 10.0 mi Calm Calm - N/A   Clear
9:53 AM 44.1 °F 41.5 °F 28.9 °F 55% 30.15 in 10.0 mi North 4.6 mph - N/A   Clear
10:53 AM 50.0 °F - 27.0 °F 41% 30.15 in 10.0 mi NNW 6.9 mph - N/A   Clear
11:53 AM 54.0 °F - 24.1 °F 31% 30.14 in 10.0 mi West 4.6 mph - N/A   Clear
12:53 PM 55.9 °F - 24.1 °F 29% 30.11 in 10.0 mi Variable 3.5 mph - N/A   Clear
1:53 PM 60.1 °F - 24.1 °F 25% 30.08 in 10.0 mi Variable 5.8 mph - N/A   Clear
2:53 PM 62.1 °F - 26.1 °F 25% 30.06 in 10.0 mi NNW 5.8 mph - N/A   Clear
3:53 PM 63.0 °F - 26.1 °F 25% 30.05 in 10.0 mi NNW 4.6 mph - N/A   Clear
4:53 PM 63.0 °F - 26.1 °F 25% 30.04 in 10.0 mi ENE 4.6 mph - N/A   Clear
5:53 PM 62.1 °F - 27.0 °F 26% 30.04 in 10.0 mi ESE 3.5 mph - N/A   Clear
6:53 PM 57.0 °F - 30.9 °F 37% 30.06 in 10.0 mi ESE 4.6 mph - N/A   Clear
7:53 PM 54.0 °F - 30.0 °F 40% 30.09 in 10.0 mi SSE 3.5 mph - N/A   Clear
8:53 PM 52.0 °F - 32.0 °F 47% 30.10 in 10.0 mi Calm Calm - N/A   Clear
9:53 PM 50.0 °F - 32.0 °F 50% 30.12 in 10.0 mi Calm Calm - N/A   Clear
10:53 PM 46.9 °F - 33.1 °F 59% 30.13 in 10.0 mi Calm Calm - N/A   Clear
11:53 PM 46.4 °F - 33.8 °F 62% 30.13 in 10.0 mi Calm Calm - N/A   Clear